www.pogodaiklimat.ru

Погода и климат >> Архив погоды >> Антарктида >> Linda


ПОГОДА в Linda

  • Прогноз погоды в Linda
  • Монитор погоды в Linda
  • Климат города

АРХИВ ПОГОДЫ в Linda

Время (UTC), дата Ветер
(напр.,м/с)
 
Видим.   Явления Облачность Т
(С)
Тd
(С)
f
(%)
Тe
(С)
Тes
(С)
Комфортность P
(гПа)
Po
(гПа)
Тmin
(С)
Tmax
(С)
R
(мм)
R24
(мм)
S
(см)
23 13.11 Ю 8 н/о н/о -11.5 -21 -21 977.8 972.5
22 13.11 Ю 7 н/о н/о -11.9 -21 -21 977.8 972.5
00 14.11 Ю 9 н/о н/о -11.5 -22 -22 977.9 972.6
01 14.11 Ю 8 н/о н/о -11.6 -22 -22 978.3 973.0
02 14.11 Ю 8 н/о н/о -11.6 -21 -21 978.4 973.1
03 14.11 Ю 7 н/о н/о -11.2 -20 -20 978.4 973.1
05 14.11 Ю 6 н/о н/о -11.7 -20 -20 978.8 973.5
04 14.11 Ю 8 н/о н/о -11.4 -21 -21 978.6 973.3
06 14.11 Ю 6 н/о н/о -12.4 -21 -21 979.0 973.6
07 14.11 ЮЗ 4 н/о н/о -12.9 -20 -20 979.0 973.6
08 14.11 Ю 5 н/о н/о -12.7 -21 -21 979.1 973.7
09 14.11 Ю 3 н/о н/о -12.6 -19 -19 979.2 973.8
11 14.11 З 2 н/о н/о -12.1 -17 -17 979.2 973.8
10 14.11 Ю 3 н/о н/о -12.8 -18 -18 979.1 973.7
12 14.11 0 н/о н/о -12.5 979.2 973.8
13 14.11 ЮВ 2 н/о н/о -14.0 -19 -19 979.2 973.8
14 14.11 Ю 2 н/о н/о -13.9 -18 -18 979.0 973.6
15 14.11 Ю 2 н/о н/о -14.4 -19 -19 979.0 973.6
17 14.11 ЮВ 2 н/о н/о -15.7 -21 -21 979.0 973.6
16 14.11 Ю 2 н/о н/о -15.3 -20 -20 979.1 973.7
18 14.11 0 н/о н/о -15.3 979.1 973.7
19 14.11 Ю 2 н/о н/о -15.1 -19 -19 979.3 973.9
20 14.11 0 н/о н/о -14.3 979.3 973.9
23 14.11 0 н/о н/о -11.8 979.5 974.2
22 14.11 0 н/о н/о -13.5 979.5 974.1
00 15.11 0 н/о н/о -10.9 979.5 974.2
01 15.11 0 н/о н/о -11.6 979.5 974.2
02 15.11 0 н/о н/о -11.2 979.5 974.2
03 15.11 Ю 3 н/о н/о -11.8 -18 -18 979.4 974.1
05 15.11 Ю 3 н/о н/о -11.9 -17 -17 979.4 974.1
04 15.11 Ю 3 н/о н/о -11.8 -17 -17 979.4 974.1
06 15.11 Ю 2 н/о н/о -12.2 -17 -17 979.3 973.9
07 15.11 Ю 2 н/о н/о -12.6 -17 -17 979.4 974.0
08 15.11 Ю 2 н/о н/о -13.0 -18 -18 979.3 973.9
09 15.11 ЮВ 2 н/о н/о -13.0 -18 -18 979.3 973.9
11 15.11 ЮВ 3 н/о н/о -14.6 -21 -21 979.3 973.9
10 15.11 Ю 2 н/о н/о -14.2 -19 -19 979.4 974.0
12 15.11 ЮВ 3 н/о н/о -16.7 -23 -23 979.1 973.7
13 15.11 ЮВ 2 н/о н/о -16.0 -21 -21 979.1 973.7
14 15.11 ЮВ 2 н/о н/о -15.6 -20 -20 979.2 973.8
15 15.11 0 н/о н/о -13.7 979.2 973.8
17 15.11 С 1 н/о н/о -16.1 -19 -19 979.4 974.0
16 15.11 0 н/о н/о -16.0 979.2 973.8
18 15.11 З 1 н/о н/о -17.5 -20 -20 979.7 974.2
19 15.11 штиль 0 н/о н/о -12.3 -12 -12 979.8 974.4
20 15.11 СЗ 2 н/о н/о -15.0 -19 -19 979.6 974.2
21 15.11 СЗ 3 н/о н/о -15.9 -22 -22 979.5 974.1
23 15.11 Ю 3 н/о н/о -12.2 -18 -18 980.0 974.6
22 15.11 Ю 2 н/о н/о -14.4 -19 -19 980.0 974.6
00 16.11 ЮЗ 2 н/о н/о -10.9 -14 -14 979.8 974.5
01 16.11 Ю 5 н/о н/о -10.6 -18 -18 979.8 974.5
02 16.11 Ю 6 н/о н/о -11.0 -20 -20 979.9 974.6
03 16.11 Ю 7 н/о н/о -10.8 -20 -20 980.0 974.7
05 16.11 Ю 4 н/о н/о -11.4 -18 -18 980.0 974.7
04 16.11 Ю 6 н/о н/о -11.0 -19 -19 980.0 974.7
06 16.11 Ю 5 н/о н/о -11.6 -19 -19 980.0 974.7
07 16.11 Ю 4 н/о н/о -11.6 -18 -18 980.3 975.0
08 16.11 Ю 3 н/о н/о -11.9 -17 -17 980.5 975.1
09 16.11 Ю 3 н/о н/о -11.3 -17 -17 980.5 975.2
11 16.11 Ю 3 н/о н/о -12.3 -18 -18 980.7 975.3
10 16.11 Ю 3 н/о н/о -11.7 -17 -17 980.5 975.1
12 16.11 Ю 2 н/о н/о -12.6 -17 -17 981.0 975.6
13 16.11 0 н/о н/о -12.5 981.1 975.7
14 16.11 0 н/о н/о -13.3 981.1 975.7
15 16.11 0 н/о н/о -12.5 981.0 975.6
17 16.11 С 2 н/о н/о -12.7 -17 -17 981.7 976.3
16 16.11 0 н/о н/о -11.8 981.4 976.0
18 16.11 СВ 3 н/о н/о -14.3 -20 -20 981.8 976.4
19 16.11 СВ 2 н/о н/о -14.0 -19 -19 982.0 976.6
20 16.11 СВ 3 н/о н/о -14.0 -20 -20 982.3 976.9
21 16.11 С 2 н/о н/о -13.2 -18 -18 982.5 977.1
23 16.11 С 2 н/о н/о -12.0 -17 -17 983.3 977.9
22 16.11 С 2 н/о н/о -12.5 -17 -17 983.1 977.7
00 17.11 СВ 3 н/о н/о -11.8 -17 -17 983.6 978.2
01 17.11 СВ 3 н/о н/о -11.8 -17 -17 983.7 978.3
02 17.11 СВ 4 н/о н/о -11.6 -19 -19 983.9 978.5
03 17.11 СВ 4 н/о н/о -11.5 -18 -18 984.2 978.8
05 17.11 0 н/о н/о -11.4 984.8 979.4
04 17.11 СВ 4 н/о н/о -11.6 -18 -18 984.4 979.0
06 17.11 0 н/о н/о -11.4 985.1 979.7
07 17.11 СВ 2 н/о н/о -12.2 -17 -17 985.4 980.0
08 17.11 СВ 3 н/о н/о -13.5 -19 -19 985.8 980.4
11 17.11 СЗ 2 н/о н/о -15.2 -19 -19 986.8 981.3
10 17.11 С 3 н/о н/о -14.9 -21 -21 986.4 981.0
12 17.11 С 2 н/о н/о -16.1 -21 -21 987.3 981.8
13 17.11 С 3 н/о н/о -17.7 -24 -24 987.5 982.0
14 17.11 0 н/о н/о -18.0 987.5 982.0
15 17.11 СВ 3 н/о н/о -19.4 -26 -26 987.9 982.3
17 17.11 С 3 н/о н/о -17.5 -24 -24 988.3 982.8
16 17.11 СВ 2 н/о н/о -18.5 -24 -24 988.0 982.5
18 17.11 0 н/о н/о -17.2 988.7 983.2
19 17.11 0 н/о н/о -14.2 988.9 983.5
20 17.11 0 н/о н/о -13.7 989.1 983.7
21 17.11 0 н/о н/о -11.7 989.4 984.0
23 17.11 ЮВ 3 н/о н/о -11.7 -17 -17 990.0 984.6
22 17.11 ЮВ 2 н/о н/о -11.8 -15 -15 989.8 984.4
00 18.11 ЮВ 5 н/о н/о -11.7 -19 -19 990.4 985.0
01 18.11 ЮВ 4 н/о н/о -11.3 -18 -18 990.5 985.1
02 18.11 В 3 н/о н/о -10.7 -16 -16 990.6 985.2
03 18.11 В 3 н/о н/о -9.9 -15 -15 990.7 985.3
05 18.11 СВ 2 н/о н/о -10.5 -14 -14 991.0 985.6
04 18.11 СВ 2 н/о н/о -10.3 -14 -14 990.8 985.4
06 18.11 0 н/о н/о -10.3 991.2 985.8
07 18.11 0 н/о н/о -11.5 991.0 985.6
08 18.11 0 н/о н/о -11.5 991.0 985.6
09 18.11 0 н/о н/о -13.8 991.0 985.5
11 18.11 ЮВ 3 н/о н/о -14.9 -21 -21 990.9 985.4
10 18.11 0 н/о н/о -13.5 990.8 985.4
12 18.11 В 3 н/о н/о -16.4 -23 -23 990.8 985.3
13 18.11 В 2 н/о н/о -17.7 -23 -23 990.4 984.9
14 18.11 СВ 2 н/о н/о -18.1 -24 -24 990.1 984.6
15 18.11 СВ 2 н/о н/о -16.3 -22 -22 989.7 984.2
17 18.11 С 2 н/о н/о -15.7 -21 -21 989.7 984.2
16 18.11 0 н/о н/о -14.7 989.6 984.1
18 18.11 Ю 4 н/о н/о -16.8 -25 -25 989.5 984.0
19 18.11 ЮВ 2 н/о н/о -17.0 -22 -22 988.7 983.2
20 18.11 ЮВ 3 н/о н/о -15.8 -22 -22 988.1 982.6
21 18.11 В 2 н/о н/о -14.6 -20 -20 987.7 982.2
23 18.11 0 н/о н/о -11.2 986.8 981.4
22 18.11 СВ 2 н/о н/о -13.3 -17 -17 987.3 981.9
03 19.11 С 3 н/о н/о -11.9 -18 -18 983.7 978.3
04 19.11 СЗ 3 н/о н/о -11.8 -17 -17 982.7 977.3
14 20.11 Ю 7 н/о н/о -16.2 -27 -27 973.5 968.1
15 20.11 Ю 8 н/о н/о -16.5 -28 -28 973.6 968.2
18 20.11 Ю 8 н/о н/о -14.1 -25 -25 975.0 969.6

 

Местоположение метеостанции Linda (Антарктида): широта -78.45 долгота 168.39 высота над уровнем моря 43 м.

В архиве по умолчанию представлена погода в Linda за последнюю неделю. Архивные данные за месяц целиком и за предыдущие месяцы, начиная с января 2011 года, Вы можете получить, выбрав интересующий диапазон дат из раскрывающегося списка и нажав кнопку "Ввод!".


*Определитесь, кто Вы:
робот инопланетянин человек

Внимание! Время в таблицах - всемирное. Для получения местного времени необходимо прибавить поправку, которая в Linda равна 0 ч.

Смотрите также архив погоды в соседних городах и на ближайших метеорологических станциях:

Погода в Minna Bluff (Антарктида) (39 км)
Погода в Pegasus North (Антарктида) (70 км)
Погода в McMurdo (Антарктида) (78 км)
Погода в Ferrell (Антарктида) (84 км)
Погода в Marble Point (Антарктида) (156 км)
Погода в Schwerdtfeger (Антарктида) (162 км)
Погода в Marilyn (Антарктида) (180 км)
Погода в Cape Ross (Антарктида) (233 км)
Погода в Gill (Антарктида) (319 км)
Погода в Manuela (Антарктида) (408 км)

Пояснения к столбцам:

Ветер - указаны скорость ветра в м/с - средняя за 10 мин, порывы в срок и между сроками (в фигурных скобках) и направление, откуда дует ветер: С - северный, СВ - северо-восточный, В - восточный, ЮВ - юго-восточный, Ю - южный, ЮЗ - юго-западный, З - западный, СЗ - северо-западный.
Видимость - горизонтальная дальность видимости в метрах или километрах. При видимости от 1 до 10 км при отсутствии осадков обычно наблюдается дымка, при ухудшении видимости до 1 км и менее - туман. В сухую погоду видимость может ухудшаться дымом, пылью или мглою.
Явления - указаны атмосферные явления, наблюдавшиеся в срок или в последний час перед сроком; фигурными скобками обозначены явления, наблюдавшиеся между сроками (за 1-3 часа до срока); квадратными скобками обозначены град или гололедные отложения с указанием их диаметра в мм.
Облачность - указаны через наклонную черту общая и нижняя облачность в баллах и высота нижней границы облаков в метрах; квадратными скобками обозначены формы облаков: Ci - перистые, Cs - перисто-слоистые, Cc - перисто-кучевые, Ac - высококучевые, As - высокослоистые, Sc - слоисто-кучевые, Ns - слоисто-дождевые, Cu - кучевые, Cb - кучево-дождевые. Подробнее классификацию облаков см. в Атласе облаков (PDF).
T - Температура воздуха - температура, измеренная на высоте 2 м над землей.
Td - Температура точки росы - температура, при понижении до которой содержащийся в воздухе водяной пар достигнет насыщения.
f - Относительная влажность воздуха - влажноcть воздуха, измеренная на высоте 2 м над землей.
Te - Эффективная температура - температура, которую ощущает одетый по сезону человек в тени. Характеристика душности погоды. При расчете учитывается влияние влажности воздуха и скорости ветра на теплоощущения человека.
Tes - Эффективная температура на солнце - температура, которую ощущает человек, с поправкой на солнечный нагрев. Характеристика знойности погоды. Зависит от высоты солнца над горизонтом, облачности и скорости ветра. Ночью, в пасмурную погоду, а также при ветре 12 м/с и более поправка равна нулю.
P - Атмосферное давление - приведенное к уровню моря атмосферное давление.
Po - Атмосферное давление - измеренное на уровне метеостанции атмосферное давление.
Tmin - Минимальная температура - минимум температуры воздуха на высоте 2 м над землей.
Tmax - Максимальная температура - максимум температуры воздуха на высоте 2 м над землей.
R - Количество осадков - Количество выпавших осадков за период времени, мм. При наведении курсора мыши на число - период времени, за который выпало указанное количество осадков.
R24 - Количество осадков - Количество выпавших осадков за 24 часа, мм.
S - Снежный покров - Высота снежного покрова, см. При наведении курсора мыши на число - состояние снежного покрова и степень покрытия местности в баллах.